Location: Unspecified
(0.0000°N, 0.0000°E)
Time: 04:20:42
(UTC+00:00)

deb NOAA 5 - Pass Details

Date: 19 February 2026
Orbit: 1470 x 1835 km, 102.5° (Epoch: 10 March)

Event Time Altitude Azimuth Distance (km) Brightness Sun altitude
Rises 20:24:27 0° 155° (SSE) 4,790 ? -32.0°
Reaches altitude 10° 20:27:27 10° 151° (SSE) 3,760 ? -32.7°
Enters shadow 20:28:13 13° 150° (SSE) 3,501 ? -32.9°
Exits shadow 20:44:58 - 355° (N) 3,880 ? -37.0°
Sets 20:46:56 0° 353° (N) 4,569 ? -37.5°
